Regional Weather Roundup
Issued by NWS

Home | Current Version | Previous Version | Text Only | Print | Product List | Glossary Off
Versions: 1 2 3 4 5 6 7 8 9 10 11 12 13 14 15 16 17 18 19 20 21 22 23 24 25 26 27 28 29 30 31 32 33 34 35 36 37 38 39 40 41 42 43 44 45 46 47 48 49 50

000
ASUS45 KBOU 031307
RWRCO

WEATHER ROUNDUP FOR COLORADO
NATIONAL WEATHER SERVICE DENVER/BOULDER CO
600 AM MST SAT DEC 03 2016

NOTE: "FAIR" INDICATES FEW OR NO CLOUDS BELOW 12000 FEET WITH NO
SIGNIFICANT WEATHER AND/OR OBSTRUCTIONS TO VISIBILITY.

COZ001>005-013-030-031-031400-
...NORTHWEST COLORADO...

CITY           SKY/WX    TMP DP  RH WIND       PRES   REMARKS
CRAIG          FAIR      10   5  80 CALM      30.18F
HAYDEN         FAIR       9   3  78 E5        30.15F WCI   0
MEEKER         FAIR       5   1  83 NE7       30.19F WCI  -7
MOUNT WERNER   NOT AVBL
STEAMBOAT SPGS MOCLDY    13  10  90 E3        30.15S
WALDEN           N/A     10   5  79 S15       30.05S WCI  -6
$$

COZ006>008-011-031400-
...WEST CENTRAL VALLEYS...

CITY           SKY/WX    TMP DP  RH WIND       PRES   REMARKS
GRAND JUNCTION FAIR      20  16  84 CALM      30.21R
MONTROSE       CLOUDY    25  20  81 SE3       30.22R
EAGLE          CLOUDY    18  15  88 W5        30.19R WCI  11
RIFLE          MOCLDY    19  12  74 W7        30.22R WCI  10
DELTA          NOT AVBL
NUCLA          FAIR      19  14  79 E8        30.22R WCI   9
$$

COZ017>023-064>068-031400-
...SOUTHWEST COLORADO...

CITY           SKY/WX    TMP DP  RH WIND       PRES   REMARKS
DURANGO        FAIR      20  15  81 CALM      30.08R
CORTEZ         CLOUDY    22  20  92 E7        30.13R WCI  13
PAGOSA SPRINGS FAIR     N/A N/A N/A CALM      30.07S
TELLURIDE      FAIR      14  12  92 W5        30.11R WCI   6
WOLF CREEK PAS FAIR      10  10 100 SW9       30.07S WCI  -2
$$

COZ009-010-012-014-032>034-037-058>063-031400-
...CENTRAL COLORADO...

CITY           SKY/WX    TMP DP  RH WIND       PRES   REMARKS
ASPEN          LGT SNOW  16  14  92 CALM      30.12R FOG
BUENA VISTA    FAIR       8   3  81 CALM      30.07R
COPPER MTN     NOT AVBL
BERTHOUD PASS  CLOUDY    -2 -13  60 NW40G49   29.86S WCI -32
COTTONWOOD PAS CLOUDY    19  18  93 W6        30.00R WCI  11
GUNNISON       FLURRIES  17  14  88 S3        30.13R
KREMMLING      FAIR      10   5  79 NE3       30.15R
LEADVILLE      CLOUDY     8   3  80 NE9       30.01R WCI  -5
MONARCH PASS   CLOUDY     9   5  85 W41G51    30.05F WCI -17
SALIDA         FAIR      13  10  87 N8        30.15R WCI   1
SUNLIGHT       LGT SNOW N/A N/A N/A SW7       30.09R
WILKERSON PASS MOCLDY     9   5  85 SW13G28   29.95R FOG     WCI  -7
$$

COZ069>075-031400-
...SAN LUIS VALLEY/SANGRE DE CRISTO MOUNTAINS...

CITY           SKY/WX    TMP DP  RH WIND       PRES   REMARKS
ALAMOSA        CLOUDY    20  19  96 W3        30.09S
LA VETA PASS   CLOUDY    16  12  86 NE17G28   30.00R FOG     WCI   0
SAGUACHE       FAIR      14  10  85 N6        30.10R WCI   5
$$

COZ035-036-038>040-031400-
...NORTHERN COLORADO FRONT RANGE...

CITY           SKY/WX    TMP DP  RH WIND       PRES   REMARKS
DENVER INTL AP FAIR      18  12  77 SW7       30.01S FOG     WCI   9
DMNS CITY PARK   N/A     19  13  76 MISG      30.01F
AURORA         PTCLDY    18  13  83 CALM      30.01S
FRONT RANGE AP NOT AVBL
ERIE MUNI ARPT CLOUDY    16  14  90 CALM      30.03F
BOULDER MUN AP CLOUDY    21  19  93 CALM      30.01F
CENTENNIAL     FAIR      18  12  77 S5        30.00R WCI  11
BROOMFIELD     MOCLDY    21  19  93 NW5       30.00F WCI  15
FORT COLLINS   FAIR      16  14  93 S6        30.02F WCI   7
LONGMONT       FAIR      16  12  84 CALM      30.05S
$$

COZ041-046-047-076>085-087-088-031400-
...PIKES PEAK/PALMER DIVIDE AND SOUTHERN FOOTHILLS...

CITY           SKY/WX    TMP DP  RH WIND       PRES   REMARKS
COLO. SPRINGS  FAIR      18  14  84 SE15      30.02F WCI   4
A. F. ACADEMY  CLOUDY    19  18  93 SE3       30.01F
SCHRIEVER AFB  NOT AVBL
ELLICOTT       FAIR     N/A N/A N/A S3        30.02F
FALCON         FAIR      18  17  96 SW10      30.00F FOG     WCI   6
FORT CARSON    FAIR      15  12  85 NW7       30.02F WCI   6
LIMON          FAIR      17  15  92 SE7       30.04F WCI   8
MONUMENT HILL  FAIR      16  14  93 S15       29.99F WCI   1
TRINIDAD       FAIR      13  11  92 W7        30.06F WCI   3
$$

COZ042>045-048>051-090-091-031400-
...NORTHEAST COLORADO...

CITY           SKY/WX    TMP DP  RH WIND       PRES   REMARKS
GREELEY ARPT   FAIR      10   6  84 W3        30.04F
AKRON          FAIR      22  16  78 S9        30.03F WCI  12
BURLINGTON     FAIR      20  13  74 S8        30.10S WCI  10
WRAY           NOT AVBL
STERLING       FAIR      18  16  93 CALM      30.06F
HOLYOKE        MOCLDY    27  21  80 SW7       30.09F WCI  19
FORT MORGAN    FAIR      15  13  89 SW6       30.05F WCI   7
$$

COZ086-089-092>099-031400-
...SOUTHEAST COLORADO...

CITY           SKY/WX    TMP DP  RH WIND       PRES   REMARKS
PUEBLO         FAIR      20  15  81 CALM      30.08F
LA JUNTA       FAIR      20  16  84 NW9       30.11S WCI   9
LAMAR          MIX PCPN  29  21  72 CALM      30.11F
SPRINGFIELD      N/A     28  26  92 SW3       30.10F
$$



USA.gov is the U.S. government's official web portal to all federal, state and local government web resources and services.